Location: Hackberry
(29.5783°N, 96.8797°W)
Time: 10:59:31
(UTC+00:00)

A-11 Canister half - All Passes

Search period start: 07 November 2024 00:00
Search period end: 17 November 2024 00:00
Orbit: 1525 x 1683 km, 47.3° (Epoch: 06 November)

Date Brightness Start Highest point End Pass type
(mag) Time Alt. Az. Time Alt. Az. Time Alt. Az.
07 Nov - 03:26:51 10° SSW 03:35:55 40° SE 03:44:43 10° ENE visible
07 Nov - 05:30:54 10° WSW 05:40:42 64° NW 05:50:12 10° NE night (unlit)
07 Nov - 07:39:16 10° WNW 07:47:24 29° NNW 07:55:20 10° NE visible
07 Nov - 09:47:18 10° NW 09:55:17 29° NNE 10:03:07 10° ENE visible
07 Nov - 11:52:33 10° NW 12:01:52 65° NE 12:11:05 10° ESE visible
07 Nov - 13:58:12 10° WNW 14:06:25 37° SW 14:14:40 10° SSE daylight
08 Nov - 03:05:14 10° SSW 03:14:10 38° SE 03:22:50 10° ENE visible
08 Nov - 05:09:00 10° WSW 05:18:52 67° NW 05:28:27 10° NE night (unlit)
08 Nov - 07:17:15 10° WNW 07:25:29 30° NNW 07:33:31 10° NE visible
08 Nov - 09:25:26 10° NW 09:33:23 29° NNE 09:41:09 10° ENE visible
08 Nov - 11:30:46 10° NW 11:40:04 62° NE 11:49:13 10° ESE visible
08 Nov - 13:36:19 10° WNW 13:44:41 39° SW 13:53:05 10° SSE daylight
09 Nov - 02:43:37 10° S 02:52:24 35° SE 03:00:57 10° ENE visible
09 Nov - 04:47:07 10° WSW 04:57:03 70° NW 05:06:41 10° NE visible
09 Nov - 06:55:15 10° WNW 07:03:35 31° NNW 07:11:43 10° NE visible
09 Nov - 09:03:33 10° NW 09:11:29 28° N 09:19:13 10° ENE visible
09 Nov - 11:08:59 10° NW 11:18:15 59° NE 11:27:23 10° ESE visible
09 Nov - 13:14:26 10° WNW 13:22:58 42° SW 13:31:30 10° SSE daylight
10 Nov - 02:22:02 10° S 02:30:38 33° SE 02:39:01 10° ENE visible
10 Nov - 04:25:15 10° WSW 04:35:14 73° NW 04:44:55 10° NE visible
10 Nov - 06:33:15 10° WNW 06:41:40 31° NNW 06:49:54 10° NE night (unlit)
10 Nov - 08:41:40 10° NW 08:49:34 28° N 08:57:16 10° ENE visible
10 Nov - 10:47:12 10° NW 10:56:27 57° NNE 11:05:31 10° ESE visible
10 Nov - 12:52:34 10° WNW 13:01:14 45° SW 13:09:53 10° SSE daylight
11 Nov - 02:00:29 10° S 02:08:53 31° SE 02:17:06 10° ENE visible
11 Nov - 04:03:23 10° SW 04:13:25 77° NW 04:23:09 10° NE visible
11 Nov - 06:11:14 10° W 06:19:46 32° NNW 06:28:05 10° NE night (unlit)
11 Nov - 08:19:47 10° NW 08:27:38 27° N 08:35:20 10° ENE visible
11 Nov - 10:25:25 10° NW 10:34:38 54° NNE 10:43:39 10° ESE visible
11 Nov - 12:30:43 10° WNW 12:39:31 48° SW 12:48:16 10° SSE daylight
12 Nov - 01:38:56 10° S 01:47:08 29° SE 01:55:08 10° ENE visible
12 Nov - 03:41:33 10° SW 03:51:36 80° NW 04:01:22 10° NE visible
12 Nov - 05:49:13 10° W 05:57:52 33° NNW 06:06:18 10° NE night (unlit)
12 Nov - 07:57:53 10° NW 08:05:44 27° N 08:13:24 10° ENE visible
12 Nov - 10:03:38 10° NW 10:12:48 52° NNE 10:21:47 10° ESE visible
12 Nov - 12:08:51 10° WNW 12:17:46 51° SW 12:26:37 10° SSE visible
13 Nov - 01:17:26 10° S 01:25:22 27° SE 01:33:10 10° ENE visible
13 Nov - 03:19:42 10° SW 03:29:47 84° NW 03:39:35 10° NE visible
13 Nov - 05:27:13 10° W 05:35:58 34° NNW 05:44:30 10° NE night (unlit)
13 Nov - 07:35:58 10° NW 07:43:48 27° N 07:51:28 10° ENE visible
13 Nov - 09:41:50 10° NW 09:50:59 50° NNE 09:59:54 10° ESE visible
13 Nov - 11:47:01 10° WNW 11:56:02 54° SW 12:04:58 10° SSE visible
14 Nov - 00:55:56 10° S 01:03:37 25° SE 01:11:10 10° ENE visible
14 Nov - 02:57:51 10° SW 03:07:58 88° NW 03:17:48 10° NE visible
14 Nov - 05:05:13 10° W 05:14:05 35° NNW 05:22:43 10° NE visible
14 Nov - 07:14:02 10° NW 07:21:53 27° N 07:29:33 10° ENE visible
14 Nov - 09:20:02 10° NW 09:29:09 47° NNE 09:38:02 10° ESE visible
14 Nov - 11:25:10 10° WNW 11:34:18 58° SW 11:43:18 10° SSE visible
15 Nov - 00:34:29 10° S 00:41:52 23° SE 00:49:08 10° ENE visible
15 Nov - 02:36:03 10° SW 02:46:10 88° SE 02:56:02 10° NE visible
15 Nov - 04:43:12 10° W 04:52:11 37° NNW 05:00:55 10° NE visible
15 Nov - 06:52:06 10° NW 06:59:57 27° N 07:07:37 10° ENE night (unlit)
15 Nov - 08:58:14 10° NW 09:07:18 46° NNE 09:16:08 10° E visible
15 Nov - 11:03:20 10° NW 11:12:33 61° SW 11:21:38 10° SSE visible
15 Nov - 13:13:55 10° WSW 13:16:16 11° WSW 13:18:36 10° SW daylight
16 Nov - 00:13:04 10° S 00:20:07 22° SE 00:27:05 10° E visible
16 Nov - 02:14:14 10° SW 02:24:21 84° SE 02:34:14 10° NE visible
16 Nov - 04:21:13 10° W 04:30:17 38° NNW 04:39:08 10° NE visible
16 Nov - 06:30:09 10° NW 06:38:01 27° N 06:45:43 10° ENE night (unlit)
16 Nov - 08:36:26 10° NW 08:45:27 44° NNE 08:54:14 10° E visible
16 Nov - 10:41:30 10° NW 10:50:48 65° SW 10:59:56 10° SSE visible
16 Nov - 12:51:06 10° W 12:54:33 12° WSW 12:58:00 10° SW daylight
